SCP
0 0 0 0 0 0 0 0 0 0 0 0 0 0 0 0 0 0 0 0 0 0 0 0 0 0 0 0 0 0 0 0 0 0 0 0 0 0
0 0 0 0 0 0 0 0 0 0 0 0 0 0 0 0 0 0 0 0 0 0 0 0 0 0 0 0 0 0 0 0 0 0 0 0 0 0
0 0 0 0 0 0 0 0 0 0 0 0 0 0 0 0 0 0 0 0 0 0 0 0 0 0 0 0 0 0 0 0 0 0 0 0 0 0
0 0 0 0 0 0 0 0 0 0 0 0 0 0 0 0 0 0 0 0 0 0 0 0 0 0 0 0 0 0 0 0 0 0 0 0 0 0
0 0 0 0 0 0 0 0 0 0 0 0 0 0 0 0 0 0 0 0 0 0 0 0 0 0 0 0 0 0 0 0 0 0 0 0 0 0
0 0 0 0 0 0 0 0 0 0 0 0 0 0 0 0 0 0 0 0 0 0 0 0 0 0 -0 0 0 0 0 0 0 0 0 0 0 0
0 0 0 0 0 0 0 0 0 0 0 0 0 0 0 0 0 0 0 0 0 0 0 0 0 0 0 -0 0 -0 0 0 0 0 0 0 0 0
0 0 0 0 0 0 0 0 0 0 0 0 0 0 0 0 0 0 0 0 0 0 0 0 0 0 0 0 0 0 0 0 0 0 0 0 0 0
0 0 0 0 0 0 0 0 0 0 0 0 0 0 0 0 0 0 0 0 0 0 0 0 -0 0 0 -0 -0 -0 -0 -0 -0 -0 0 0 -0 -0
0 0 0 0 0 0 0 0 0 0 0 0 0 0 0 0 0 0 0 0 0 0 0 0 0 -0 -0 -0 0 -0 -0 -0 -0 -0 -0 -0 -0 -0
0 0 0 0 0 0 0 0 0 0 0 0 0 0 0 0 0 0 0 0 0 0 0 0 0 -0 -0 -0 0 -0 -0 -0 -0 -0 -0 -0 -0 -0
0 0 0 0 0 0 0 0 0 0 0 0 0 0 0 0 0 0 0 0 0 0 0 0 -0 -0 -0 -0 0 -0 -0 -0 -0 -0 -0 -0 -0 -0
0 0 0 0 0 0 0 0 0 0 0 0 0 0 0 0 0 0 0 0 0 0 -0 0 0 -0 -0 0 -0 -0 -0 -0 -0 -0 -0 -0 -0 0
0 0 0 0 0 0 0 0 0 0 0 0 0 0 0 0 0 0 0 0 0 0 0 0 0 0 0 -0 0 -0 -0 -0 -0 -0 0 0 0 0
0 0 0 0 0 0 0 0 0 0 0 0 0 0 0 0 0 0 0 0 0 0 0 0 0 0 0 0 -0 -0 -0 0 -0 0 0 0 0 0
0 0 0 0 0 0 0 0 0 0 0 0 0 0 0 0 0 0 0 0 -0 -0 -0 0 0 0 0 0 -0 -0 -0 -0 0 0 0 0 0 0
0 0 0 0 0 0 0 0 0 0 0 0 0 0 0 0 0 0 0 0 0 -0 -0 -0 0 0 0 0 0 -0 -0 -0 0 0 0 0 0 0
0 0 0 0 0 0 0 0 0 0 0 0 0 0 0 0 0 0 0 0 0 0 0 0 0 -0 0 0 0 0 0 -0 0 0 0 0 0 0
0 0 0 0 0 0 0 0 0 0 0 0 0 0 0 0 0 0 0 0 0 0 0 0 0 0 0 0 0 -0 0 0 0 0 0 0 0 -0
0 0 0 0 0 0 0 0 0 0 0 0 0 0 0 0 0 0 0 0 0 0 0 0 0 0 0 0 0 0 0 0 0 0 0 -0 0 -0
0 0 0 0 0 0 0 0 0 0 0 0 0 0 0 0 0 0 0 0 0 0 0 0 0 0 0 0 0 0 0 -0 -0 -0 -0 0 -0 -0
0 0 0 0 0 0 0 0 0 0 0 0 0 0 0 0 0 0 0 0 0 0 0 0 0 0 0 0 0 -0 -0 0 0 -0 -0 0 0 0
0 0 0 0 0 0 0 0 0 0 0 0 0 0 0 0 0 0 0 0 0 -0 -0 -0 -0 -0 -0 -0 0 0 -0 0 -0 0 0 0 0 0
Wind_Speed_500mb
10 7 7 2 4 10 16 19 23 34 35 28 28 30 36 29 31 39 43 44 50 31 27 28 31 34 35 40 36 38 38 38 40 37 35 40 30 21
14 8 6 9 13 17 23 29 27 31 42 36 35 33 29 33 32 44 46 54 42 32 36 39 42 46 48 47 46 44 43 41 41 42 39 38 24 25
16 11 13 14 16 21 28 31 31 32 37 40 34 31 39 43 46 45 45 39 29 34 34 38 43 48 51 50 49 47 44 40 41 42 36 30 28 30
20 19 17 17 21 29 32 37 35 38 38 42 39 37 37 42 51 50 35 21 25 33 42 43 37 36 37 38 39 40 43 44 41 37 35 33 30 25
23 21 17 21 29 30 37 41 33 34 34 34 31 32 34 34 35 23 23 23 27 37 34 29 25 26 31 33 34 35 36 37 39 39 35 32 30 30
26 22 21 28 32 36 38 33 29 22 24 24 31 32 30 29 25 25 27 28 30 26 26 24 26 31 31 32 33 32 35 36 37 35 32 30 31 32
23 24 27 28 32 37 28 24 21 17 22 24 27 29 30 29 25 25 28 29 29 26 21 24 23 24 25 30 33 33 30 28 27 29 32 35 36 34
26 23 23 29 35 28 24 20 18 19 13 22 29 30 29 25 24 27 28 35 41 24 32 29 25 26 25 25 33 32 24 18 21 26 33 41 38 36
27 26 28 33 29 22 20 19 23 19 23 28 25 27 29 30 33 32 31 36 35 32 36 41 22 27 20 26 26 13 20 16 17 18 18 16 22 29
32 32 33 31 24 20 17 19 24 24 26 26 32 35 31 31 34 33 35 35 34 31 28 37 19 25 23 22 22 12 18 23 23 20 18 17 22 28
35 32 31 29 22 18 22 18 17 16 27 35 40 31 29 31 31 34 29 28 32 31 29 24 22 25 26 20 6 20 19 21 20 20 25 26 27 28
33 28 26 21 19 22 21 22 18 18 29 35 28 24 24 24 26 24 28 29 31 30 19 25 34 23 20 13 20 21 23 21 19 27 27 25 26 30
28 27 18 18 24 21 21 26 23 24 26 27 26 24 21 22 25 29 28 30 33 32 35 40 43 33 30 26 21 25 22 19 21 26 29 24 24 26
27 20 19 23 12 10 19 22 25 22 19 22 24 26 26 26 27 27 29 31 32 36 39 38 43 32 32 35 33 28 28 25 22 24 20 22 24 25
22 18 15 4 7 12 12 19 23 20 20 24 26 26 28 28 31 32 30 29 32 36 32 33 38 43 43 43 39 33 35 27 25 24 30 26 26 30
15 7 5 7 10 14 20 24 25 22 22 26 28 30 31 33 34 32 32 35 40 38 29 28 28 31 33 33 34 32 28 25 29 28 30 25 25 27
5 4 9 11 15 17 19 21 23 24 25 27 31 36 38 37 32 32 37 41 40 38 32 25 25 34 37 36 33 27 23 27 28 30 26 24 24 23
3 6 12 14 16 18 22 27 27 24 23 26 33 37 35 31 35 39 37 37 40 36 32 28 26 26 22 27 24 22 24 25 28 26 25 25 23 16
6 11 14 14 16 20 24 20 17 16 27 27 30 27 31 35 37 37 38 37 36 32 29 26 23 19 19 19 17 26 21 24 29 26 17 19 23 23
14 10 13 14 16 18 16 17 20 22 22 24 28 31 33 34 36 37 35 34 31 28 25 21 18 17 17 18 24 23 29 25 25 17 20 20 24 28
7 9 12 12 14 14 18 19 21 23 33 34 33 33 34 35 35 32 31 31 27 19 18 15 14 21 18 22 25 24 19 27 17 17 20 21 20 18
8 10 10 12 14 16 19 21 24 28 31 33 34 35 35 33 32 30 26 22 19 18 17 16 14 14 16 15 17 20 19 15 19 25 24 20 16 13
7 8 11 13 16 18 20 24 28 31 33 35 37 35 32 30 27 25 21 20 22 20 15 17 14 13 15 14 16 13 11 12 14 13 9 11 10 13
Wind_Direction_500mb
164 151 139 213 311 325 325 308 306 308 308 311 309 304 320 310 312 321 323 326 334 296 304 297 293 295 293 297 291 294 294 293 297 304 308 308 300 280
194 202 240 277 300 311 311 306 296 296 297 306 305 306 319 313 305 309 312 320 313 293 283 285 287 289 291 293 292 290 288 290 288 296 301 312 300 290
217 233 253 273 291 297 302 300 298 291 289 302 299 301 307 316 307 306 310 310 305 301 298 294 291 288 285 285 286 287 286 283 284 290 292 293 293 282
235 245 256 274 290 298 299 303 299 298 293 300 306 311 311 309 315 313 314 311 304 306 311 308 302 299 294 290 286 285 283 283 281 280 281 286 287 288
235 243 255 279 292 297 301 306 303 299 300 309 317 315 314 319 322 326 326 317 320 317 321 320 312 309 307 301 297 291 287 283 278 276 275 278 277 283
231 241 261 282 292 299 306 310 310 308 311 313 313 313 318 323 330 327 324 318 319 320 322 322 322 324 309 309 309 302 292 282 276 279 268 272 278 295
232 255 274 281 289 299 305 307 315 317 315 318 322 320 321 325 325 324 324 327 328 321 322 318 314 319 312 313 317 316 309 292 278 276 272 269 270 287
251 267 278 283 288 294 308 317 315 320 326 332 329 321 324 321 321 325 330 331 329 328 325 320 316 309 306 310 306 318 310 288 289 287 282 270 264 270
261 268 276 284 288 291 315 316 323 311 323 334 328 323 320 320 322 320 323 332 329 327 326 325 318 318 317 316 313 319 343 334 321 305 302 294 261 265
264 264 272 281 283 294 314 312 316 316 325 329 323 321 316 317 320 319 317 314 323 321 321 334 324 330 332 316 297 281 321 325 319 304 302 293 278 273
265 263 275 281 281 298 308 288 302 306 325 329 329 321 316 321 314 314 309 306 311 317 313 308 322 322 326 324 275 331 309 314 320 308 301 298 284 281
261 266 282 273 285 300 278 282 299 300 320 327 327 328 333 337 335 315 306 311 308 316 320 317 319 324 327 319 316 311 311 308 301 297 295 290 293 276
267 281 274 283 295 287 269 280 291 295 319 329 333 338 330 324 326 322 321 317 309 301 306 307 305 301 298 303 311 314 313 307 310 309 293 277 292 275
273 273 285 297 280 267 277 292 287 290 306 325 337 340 338 327 316 315 315 313 314 311 309 295 294 289 291 297 302 307 310 311 314 308 303 269 276 279
269 284 300 262 280 289 291 301 286 277 293 316 327 332 329 323 324 319 321 310 310 309 302 296 281 286 286 289 289 295 302 306 307 304 302 286 284 280
277 293 284 288 296 282 300 296 283 268 281 302 315 318 322 320 314 315 313 310 307 309 300 292 278 277 282 285 286 287 291 298 302 308 296 295 292 279
249 304 300 289 295 298 296 288 285 280 283 296 307 312 313 311 308 307 307 306 303 305 301 292 281 279 276 278 279 285 299 299 303 305 296 294 293 283
276 287 303 290 296 309 303 301 297 292 289 293 303 307 307 304 306 308 308 304 302 300 295 293 291 292 288 279 272 279 290 300 310 306 292 292 308 287
278 302 291 286 304 311 310 307 308 305 308 307 303 305 305 304 309 307 308 306 304 298 291 289 289 282 285 283 286 297 293 300 307 305 307 286 286 296
298 289 284 299 309 309 308 311 315 315 313 311 309 306 305 305 307 308 308 308 307 302 297 291 279 272 269 282 291 299 294 300 301 318 326 308 308 305
281 282 297 305 306 311 310 317 319 313 314 313 311 308 306 305 304 304 306 309 317 316 304 297 277 268 282 291 297 306 299 302 287 297 304 307 308 304
286 305 307 307 311 308 314 320 316 316 316 315 311 309 307 303 302 302 301 296 301 300 296 298 297 278 286 289 300 307 307 304 314 311 307 301 287 298
313 321 315 311 309 317 323 318 317 319 318 315 315 313 309 306 301 298 295 288 297 304 312 319 301 295 302 300 313 309 327 326 313 319 320 338 321 314
Wind_Speed_850mb
10 7 7 2 4 10 16 19 23 34 35 28 28 30 36 29 31 39 43 44 50 31 27 28 31 34 35 40 36 38 38 38 40 37 35 40 30 21
14 8 6 9 13 17 23 29 27 31 42 36 35 33 29 33 32 44 46 54 42 32 36 39 42 46 48 47 46 44 43 41 41 42 39 38 24 25
16 11 13 14 16 21 28 31 31 32 37 40 34 31 39 43 46 45 45 39 29 34 34 38 43 48 51 50 49 47 44 40 41 42 36 30 28 30
20 19 17 17 21 29 32 37 35 38 38 42 39 37 37 42 51 50 35 21 25 33 42 43 37 36 37 38 39 40 43 44 41 37 35 33 30 25
23 21 17 21 29 30 37 41 33 34 34 34 31 32 34 34 35 23 23 23 27 37 34 29 25 26 31 33 34 35 36 37 39 39 35 32 30 30
26 22 21 28 32 36 38 33 29 22 24 24 31 32 30 29 25 25 27 28 30 26 26 24 26 31 31 32 33 32 35 36 37 35 32 30 31 32
23 24 27 28 32 37 28 24 21 17 22 24 27 29 30 29 25 25 28 29 29 26 21 24 23 24 25 30 33 33 30 28 27 29 32 35 36 34
26 23 23 29 35 28 24 20 18 19 13 22 29 30 29 25 24 27 28 35 41 24 32 29 25 26 25 25 33 32 24 18 21 26 33 41 38 36
27 26 28 33 29 22 20 19 23 19 23 28 25 27 29 30 33 32 31 36 35 32 36 41 22 27 20 26 26 13 20 16 17 18 18 16 22 29
32 32 33 31 24 20 17 19 24 24 26 26 32 35 31 31 34 33 35 35 34 31 28 37 19 25 23 22 22 12 18 23 23 20 18 17 22 28
35 32 31 29 22 18 22 18 17 16 27 35 40 31 29 31 31 34 29 28 32 31 29 24 22 25 26 20 6 20 19 21 20 20 25 26 27 28
33 28 26 21 19 22 21 22 18 18 29 35 28 24 24 24 26 24 28 29 31 30 19 25 34 23 20 13 20 21 23 21 19 27 27 25 26 30
28 27 18 18 24 21 21 26 23 24 26 27 26 24 21 22 25 29 28 30 33 32 35 40 43 33 30 26 21 25 22 19 21 26 29 24 24 26
27 20 19 23 12 10 19 22 25 22 19 22 24 26 26 26 27 27 29 31 32 36 39 38 43 32 32 35 33 28 28 25 22 24 20 22 24 25
22 18 15 4 7 12 12 19 23 20 20 24 26 26 28 28 31 32 30 29 32 36 32 33 38 43 43 43 39 33 35 27 25 24 30 26 26 30
15 7 5 7 10 14 20 24 25 22 22 26 28 30 31 33 34 32 32 35 40 38 29 28 28 31 33 33 34 32 28 25 29 28 30 25 25 27
5 4 9 11 15 17 19 21 23 24 25 27 31 36 38 37 32 32 37 41 40 38 32 25 25 34 37 36 33 27 23 27 28 30 26 24 24 23
3 6 12 14 16 18 22 27 27 24 23 26 33 37 35 31 35 39 37 37 40 36 32 28 26 26 22 27 24 22 24 25 28 26 25 25 23 16
6 11 14 14 16 20 24 20 17 16 27 27 30 27 31 35 37 37 38 37 36 32 29 26 23 19 19 19 17 26 21 24 29 26 17 19 23 23
14 10 13 14 16 18 16 17 20 22 22 24 28 31 33 34 36 37 35 34 31 28 25 21 18 17 17 18 24 23 29 25 25 17 20 20 24 28
7 9 12 12 14 14 18 19 21 23 33 34 33 33 34 35 35 32 31 31 27 19 18 15 14 21 18 22 25 24 19 27 17 17 20 21 20 18
8 10 10 12 14 16 19 21 24 28 31 33 34 35 35 33 32 30 26 22 19 18 17 16 14 14 16 15 17 20 19 15 19 25 24 20 16 13
7 8 11 13 16 18 20 24 28 31 33 35 37 35 32 30 27 25 21 20 22 20 15 17 14 13 15 14 16 13 11 12 14 13 9 11 10 13
Wind_Direction_850mb
164 151 139 213 311 325 325 308 306 308 308 311 309 304 320 310 312 321 323 326 334 296 304 297 293 295 293 297 291 294 294 293 297 304 308 308 300 280
194 202 240 277 300 311 311 306 296 296 297 306 305 306 319 313 305 309 312 320 313 293 283 285 287 289 291 293 292 290 288 290 288 296 301 312 300 290
217 233 253 273 291 297 302 300 298 291 289 302 299 301 307 316 307 306 310 310 305 301 298 294 291 288 285 285 286 287 286 283 284 290 292 293 293 282
235 245 256 274 290 298 299 303 299 298 293 300 306 311 311 309 315 313 314 311 304 306 311 308 302 299 294 290 286 285 283 283 281 280 281 286 287 288
235 243 255 279 292 297 301 306 303 299 300 309 317 315 314 319 322 326 326 317 320 317 321 320 312 309 307 301 297 291 287 283 278 276 275 278 277 283
231 241 261 282 292 299 306 310 310 308 311 313 313 313 318 323 330 327 324 318 319 320 322 322 322 324 309 309 309 302 292 282 276 279 268 272 278 295
232 255 274 281 289 299 305 307 315 317 315 318 322 320 321 325 325 324 324 327 328 321 322 318 314 319 312 313 317 316 309 292 278 276 272 269 270 287
251 267 278 283 288 294 308 317 315 320 326 332 329 321 324 321 321 325 330 331 329 328 325 320 316 309 306 310 306 318 310 288 289 287 282 270 264 270
261 268 276 284 288 291 315 316 323 311 323 334 328 323 320 320 322 320 323 332 329 327 326 325 318 318 317 316 313 319 343 334 321 305 302 294 261 265
264 264 272 281 283 294 314 312 316 316 325 329 323 321 316 317 320 319 317 314 323 321 321 334 324 330 332 316 297 281 321 325 319 304 302 293 278 273
265 263 275 281 281 298 308 288 302 306 325 329 329 321 316 321 314 314 309 306 311 317 313 308 322 322 326 324 275 331 309 314 320 308 301 298 284 281
261 266 282 273 285 300 278 282 299 300 320 327 327 328 333 337 335 315 306 311 308 316 320 317 319 324 327 319 316 311 311 308 301 297 295 290 293 276
267 281 274 283 295 287 269 280 291 295 319 329 333 338 330 324 326 322 321 317 309 301 306 307 305 301 298 303 311 314 313 307 310 309 293 277 292 275
273 273 285 297 280 267 277 292 287 290 306 325 337 340 338 327 316 315 315 313 314 311 309 295 294 289 291 297 302 307 310 311 314 308 303 269 276 279
269 284 300 262 280 289 291 301 286 277 293 316 327 332 329 323 324 319 321 310 310 309 302 296 281 286 286 289 289 295 302 306 307 304 302 286 284 280
277 293 284 288 296 282 300 296 283 268 281 302 315 318 322 320 314 315 313 310 307 309 300 292 278 277 282 285 286 287 291 298 302 308 296 295 292 279
249 304 300 289 295 298 296 288 285 280 283 296 307 312 313 311 308 307 307 306 303 305 301 292 281 279 276 278 279 285 299 299 303 305 296 294 293 283
276 287 303 290 296 309 303 301 297 292 289 293 303 307 307 304 306 308 308 304 302 300 295 293 291 292 288 279 272 279 290 300 310 306 292 292 308 287
278 302 291 286 304 311 310 307 308 305 308 307 303 305 305 304 309 307 308 306 304 298 291 289 289 282 285 283 286 297 293 300 307 305 307 286 286 296
298 289 284 299 309 309 308 311 315 315 313 311 309 306 305 305 307 308 308 308 307 302 297 291 279 272 269 282 291 299 294 300 301 318 326 308 308 305
281 282 297 305 306 311 310 317 319 313 314 313 311 308 306 305 304 304 306 309 317 316 304 297 277 268 282 291 297 306 299 302 287 297 304 307 308 304
286 305 307 307 311 308 314 320 316 316 316 315 311 309 307 303 302 302 301 296 301 300 296 298 297 278 286 289 300 307 307 304 314 311 307 301 287 298
313 321 315 311 309 317 323 318 317 319 318 315 315 313 309 306 301 298 295 288 297 304 312 319 301 295 302 300 313 309 327 326 313 319 320 338 321 314